BIROS (41604 NORAD) Tracking and Keplerian Element Data

This shows tracking and keplerian element data for the satellite.

Feedback or suggestion? Click here.




ElementValue
Catalog41604
NameBIROS
Epoch Orbit13260
Epoch Day315.7431855
Epoch Year2018
RAAN16.2525
Inclination97.3961
Eccentricity0.001409
Argument of Perigee76.0878
Mean Anonmoly284.1924
Mean Motion15.21517126
Decay Rate5.11E-06
L11 41604U 16040F 18315.74318550 .00000511 00000-0 25712-4 0 9995
L22 41604 97.3961 16.2525 0014090 76.0878 284.1924 15.21517126132606

Live tracking and technical data element details for BIROS (NORAD 41604). BIROS can be tracked NOW for your location showing map with azimuth and elevation plus other details from your city location.

Track the satellite on the map from your city or location and see movement details for azimuth, elevation, latitude, longitude, range, height, and movement on the map or in text.







IsCatalogInMostPopularTable: catalog: 41604, numindb: 121
Update: records affected: 1



GetName: 41604 BIROS

Hit Count: updated at: Mon, 12 Nov 2018 17:37:59 GMT